Location: Dehesa de la Cepeda
(40.6574°N, 4.3013°W)
Time: 10:00:24
(UTC+00:00)

Transit 2A Rocket - Pass Details

Date: 07 August 2021
Orbit: 586 x 917 km, 66.7° (Epoch: 24 September)

Event Time Altitude Azimuth Distance (km) Brightness Sun altitude
Rises 12:55:47 0° 216° (SW) 2,833 8.3 64.6°
Reaches altitude 10° 12:57:58 10° 219° (SW) 1,959 7.7 64.5°
Maximum altitude 13:02:20 66° 302° (WNW) 700 5.9 64.2°
Drops below altitude 10° 13:07:06 10° 25° (NNE) 2,132 7.2 63.8°
Sets 13:09:34 0° 28° (NNE) 3,107 7.9 63.6°
